Location: Drocourt
(49.0571°N, 1.7669°E)
Time: 09:01:34
(UTC+00:00)

Cosmos 2278 Rocket - Pass Details

Date: 09 February 2023
Orbit: 841 x 845 km, 71.0° (Epoch: 23 March)

Event Time Altitude Azimuth Distance (km) Brightness Sun altitude
Rises 20:11:35 0° 323° (NW) 3,415 6.0 -31.2°
Reaches altitude 10° 20:14:23 10° 311° (NW) 2,474 5.3 -31.6°
Maximum altitude 20:19:00 26° 257° (WSW) 1,599 4.1 -32.3°
Enters shadow 20:22:38 14° 209° (SSW) 2,178 4.4 -32.9°
